星链-3847 (STARLINK-3847 )

导读

STARLINK-3847是美国太空探索技术公司星链卫星网络的一员,于2022年4月29日发射入轨,隶属于SpaceX打造的星链星座组网计划。星链项目旨在构建覆盖全球的低轨卫星互联网系统,该卫星承担为全球偏远区域、特殊场景提供高速网络接入的任务,是星链大规模组网进程中补充的卫星节点,目前已在近地轨道正常运行,服务全球卫星互联网组网。

基本信息
目录编号:
52333
目录名称:
STARLINK-3847
国际标识:
2022-045C
轨道中心:
EARTH
卫星名称:
星链-3847
卫星全名:
星链-3847 (STARLINK-3847 )
卫星状态:
在轨 (已飞行1510 天)
发射日期:
2022-04-29 UTC
国别 :
美国 (US)
星等 :
--
轨道信息
数据来源 国际轨道数据 AOE轨道数据
星历时间 2026-06-17T11:32:22+0800
11小时前
查看轨道信息
2026-06-17T03:00:00+0800
20小时前
查看轨道信息
半长轴 6917.895km 6917.847km
偏心率 0.0001409 0.0001429
轨道倾角 53.160° 53.158°
近地点辐角 85.780° 108.559°
升交点赤经 122.543° 124.139°
平近点角 274.335° 117.885°
近地点 538.783km 538.721km
远地点 540.733km 540.699km
周期 95.438分钟 95.437分钟
每日圈数 15.088353 15.08851
详细信息
固有亮度:
5
最大亮度:
2.5
卫星平台:
Starlink v1.5
覆盖范围:
全球
运营商:
太空探索技术公司
运营商所在国:
美国
制造商(研发单位):
太空探索技术公司
制造商所在国:
美国
使用方式:
暂无
卫星简介
星链(Starlink)计划是由太空探索技术公司(SpaceX)提出的一个巨型低轨卫星互联网星座项目,计划在2019年至2024年间在太空搭建由约1.2万颗卫星组成的“星链”网络,其中1584颗将部署在地球上空550千米处的近地轨道,并从2020年开始工作。该卫星仍在工作。
2D轨道图
3D轨道图
轨道高度分析图
轨道倾角分析图
轨道综合分析图
查看轨道综合分析图